SCP
0 0 0 0 0 0 0 0 0 0 0 0 0 0 0 0 0 1 1 0 0 0 0 0 0 0 0 0 0 0 0 0 0 0 0 0 0 0 0 0 1 0 0
0 0 0 0 0 0 0 0 0 0 0 0 0 0 0 0 0 0 1 1 0 0 0 0 1 0 0 0 0 0 0 0 0 0 0 0 0 0 0 0 0 0 0
0 0 0 0 0 0 0 0 0 0 0 0 0 0 0 0 0 0 0 1 0 0 0 0 0 1 0 0 0 0 0 0 0 0 0 0 0 0 0 0 0 1 0
0 0 0 0 0 0 0 0 0 0 0 0 0 0 0 0 0 0 0 0 0 0 0 0 1 0 0 0 0 0 0 0 0 0 0 0 0 0 0 0 0 0 0
0 0 0 0 0 0 0 0 0 0 0 0 0 0 0 0 0 0 0 0 0 -0 -0 0 0 0 0 0 0 0 0 0 0 0 0 0 0 0 0 0 0 0 0
0 0 0 0 0 0 0 0 0 0 0 0 0 0 0 0 0 0 0 0 0 -0 -0 -0 -0 -0 0 -0 0 0 0 0 0 0 0 0 0 0 0 0 0 0 0
0 0 0 0 0 0 0 0 0 0 0 0 0 0 0 0 0 0 0 0 0 0 -0 -0 -0 -0 -0 -0 0 0 0 0 0 0 0 0 0 0 0 0 0 0 0
0 0 0 0 0 0 0 0 0 0 0 0 0 0 0 0 0 0 0 0 0 0 0 0 0 0 0 0 0 0 -0 0 -0 -0 0 0 0 0 0 0 0 0 0
0 0 0 0 0 0 0 0 0 0 0 0 0 0 0 0 0 0 0 0 0 0 0 0 0 0 0 0 0 0 0 0 0 0 0 0 0 0 0 0 0 0 0
0 0 0 0 0 0 0 0 0 0 0 0 0 0 0 0 0 0 0 0 0 0 0 0 0 0 0 0 0 0 0 0 0 0 0 0 0 0 0 0 0 0 0
0 0 0 0 0 0 0 0 0 0 0 0 0 0 0 0 0 0 0 0 0 0 0 0 0 0 0 0 0 0 0 0 0 0 0 0 0 0 0 0 0 0 0
0 0 0 0 0 0 0 0 0 0 0 0 0 0 0 0 0 0 -0 0 0 0 0 0 0 0 0 0 0 0 0 0 0 0 0 0 0 0 0 0 0 0 0
0 0 0 0 0 0 0 0 0 0 0 0 0 0 0 0 0 0 0 0 0 0 0 0 0 0 0 0 0 0 0 0 0 0 0 0 0 0 0 0 0 0 0
0 0 0 0 0 0 0 0 0 0 0 0 0 0 0 0 0 0 0 0 0 0 0 0 0 0 0 0 0 0 0 0 0 0 0 0 0 0 0 0 0 0 0
0 0 0 0 0 0 0 0 0 0 0 0 0 0 0 0 0 0 0 0 0 -0 0 0 0 0 0 0 0 0 0 0 0 0 0 0 0 0 0 0 0 0 0
0 0 0 0 0 0 0 0 0 0 0 0 0 0 0 0 0 0 0 -0 -0 -0 -0 -0 -0 0 0 0 0 0 0 0 0 0 0 0 0 0 0 0 0 0 0
0 0 0 0 0 0 0 0 0 0 0 0 0 0 0 0 0 0 0 0 -0 -0 -0 -0 -0 -0 -0 -0 0 0 0 0 0 0 0 0 0 0 0 0 0 0 0
0 0 0 0 0 0 0 0 0 0 0 0 0 0 0 0 0 0 0 0 0 0 -0 0 0 0 -0 -0 -0 -0 0 0 0 0 0 0 0 0 0 0 0 0 0
0 0 0 0 0 0 0 0 0 0 0 0 0 0 0 0 0 0 0 0 0 0 0 -0 0 -0 -0 0 -0 0 0 0 0 0 0 -0 -0 -0 0 0 0 0 0
0 0 0 0 0 0 0 0 0 0 0 0 0 0 0 0 0 0 0 0 0 0 0 0 0 -0 -0 0 0 0 -0 0 0 0 0 0 0 0 0 -0 -0 -0 0
0 0 0 0 0 0 0 0 0 0 0 0 0 0 0 0 0 0 0 0 0 0 0 0 0 0 0 0 0 0 0 0 0 0 0 0 0 0 0 0 -0 0 0
0 0 0 0 0 0 0 0 0 0 0 0 0 0 0 0 0 0 0 0 0 0 0 0 0 0 0 0 0 0 0 0 0 -0 0 -0 0 0 0 -0 0 0 0
0 0 0 0 0 0 0 0 0 0 0 0 0 0 0 0 0 0 0 0 0 -0 -0 0 0 0 0 0 0 0 0 0 -0 -0 -0 -0 0 0 0 -0 0 0 0
0 0 0 0 0 0 0 0 0 0 0 0 0 0 0 0 0 0 0 0 0 0 0 0 0 0 0 0 0 0 0 0 0 0 0 -0 0 -0 0 -0 -0 0 0
0 0 0 0 0 0 0 0 0 0 0 0 0 0 0 0 0 0 0 0 0 0 0 0 0 0 0 0 0 0 0 -0 -0 0 0 -0 0 0 0 0 0 -0 0
0 0 0 0 0 0 0 0 0 0 0 0 0 0 0 0 0 0 0 0 0 0 0 0 0 0 -0 0 -0 0 0 0 -0 0 0 -0 0 -0 0 0 0 0 0
Wind_Speed_500mb
29 27 27 28 30 31 31 32 32 32 29 27 26 26 25 28 28 31 35 39 41 55 68 65 49 45 41 38 32 25 18 15 13 14 20 25 26 24 22 19 20 20 29
29 25 27 29 31 32 32 33 34 33 32 31 29 29 29 27 28 28 32 35 36 47 55 72 51 53 47 42 36 29 22 18 14 12 13 15 23 27 25 23 21 18 21
30 28 29 30 33 31 32 31 31 30 29 29 31 31 30 28 28 33 29 30 37 41 51 65 79 63 52 42 39 33 25 23 20 17 15 15 18 21 27 27 26 22 18
33 29 30 32 35 32 32 33 32 30 29 28 31 30 27 24 23 26 33 25 22 33 51 25 65 73 40 43 35 38 28 29 27 21 15 13 11 16 21 29 29 27 24
34 34 31 33 33 31 32 33 33 33 30 30 30 27 25 18 20 19 25 23 25 19 39 48 37 39 43 52 43 38 40 35 36 24 18 15 11 10 12 19 29 32 31
37 35 29 32 32 31 30 33 33 32 29 32 27 23 18 14 14 16 19 16 19 21 18 12 33 35 35 50 38 39 30 55 43 29 18 15 15 16 17 20 25 32 37
36 33 30 30 32 31 35 36 33 31 28 31 27 22 13 5 10 13 18 19 16 9 11 7 11 22 31 19 27 32 40 8 20 26 25 20 25 25 26 26 29 34 39
34 31 33 31 33 30 34 36 37 34 28 32 31 25 17 4 13 10 8 11 14 9 3 3 5 13 12 10 11 14 14 11 11 16 21 27 33 33 31 29 30 33 39
35 36 33 31 31 31 31 35 35 32 31 26 25 19 16 13 30 7 9 9 7 8 4 6 8 7 13 15 15 14 19 21 25 27 29 33 37 36 29 30 31 34 37
33 31 32 31 32 32 33 31 30 30 34 32 26 24 14 19 15 13 8 7 8 2 1 8 7 14 12 9 17 18 19 22 23 24 26 27 27 31 33 33 37 40 39
28 32 32 32 33 31 34 34 34 38 32 29 29 30 26 18 14 18 24 15 7 9 4 6 10 7 8 12 12 17 21 24 25 28 31 31 33 33 37 42 43 44 43
25 33 32 30 31 34 35 31 30 30 30 27 28 23 22 17 18 18 25 24 16 3 7 6 7 6 5 8 13 25 25 24 27 28 31 32 33 35 38 42 46 50 47
24 29 31 30 30 33 34 33 32 31 29 26 34 31 23 25 24 21 21 22 16 13 9 10 6 6 7 6 12 19 26 24 28 29 31 31 33 33 34 36 42 50 52
22 27 26 27 32 34 34 33 29 26 27 26 29 29 25 22 25 22 19 20 18 10 4 4 4 7 7 11 17 20 19 27 24 27 29 31 33 34 36 39 39 42 47
20 21 22 25 29 30 32 31 30 29 29 28 26 26 27 26 25 23 21 17 12 14 14 5 5 6 6 11 18 16 13 21 20 22 27 31 36 38 38 42 42 47 47
19 20 20 21 22 25 27 29 26 28 28 27 26 28 25 25 26 24 18 19 17 16 14 15 12 11 8 11 16 12 14 18 23 25 27 29 32 34 37 38 42 46 49
19 17 19 19 19 21 24 25 25 28 29 27 27 26 29 26 23 21 20 17 16 18 19 20 18 19 26 18 17 22 24 28 30 35 32 38 41 46 49 47 46 49 53
18 18 18 18 18 20 22 24 25 25 26 27 24 24 24 27 32 23 18 18 15 14 15 21 20 15 17 18 20 24 24 23 24 31 38 40 43 47 49 52 54 56 58
18 17 18 18 19 21 22 23 24 25 24 21 22 19 21 23 26 29 21 18 18 18 18 20 24 19 20 21 17 22 21 25 20 32 34 33 34 39 44 53 60 61 59
17 17 19 20 21 22 22 23 24 25 26 22 19 20 18 18 20 21 19 22 22 23 21 21 22 23 21 21 19 21 23 24 30 32 36 36 37 43 49 51 55 60 57
18 18 20 22 24 26 25 26 29 28 28 28 24 19 20 21 22 21 19 18 18 20 23 23 23 22 21 19 19 24 28 30 32 32 32 33 34 37 50 56 53 51 49
22 23 25 28 30 31 36 36 39 40 34 32 31 27 24 29 28 30 26 26 24 21 18 22 26 21 17 22 21 26 30 33 37 30 32 39 33 53 50 49 47 48 44
26 28 29 28 31 33 38 37 39 43 43 35 35 32 30 25 34 26 33 35 30 25 22 21 20 21 20 19 20 22 27 34 35 29 31 35 43 57 48 38 39 36 33
30 31 33 34 35 37 43 36 37 43 46 41 39 36 33 33 30 33 37 36 30 27 30 23 21 21 22 23 25 27 32 32 37 30 23 36 43 49 36 34 34 23 18
31 34 36 39 41 43 44 38 36 41 39 42 39 36 35 36 36 42 42 41 33 26 26 22 24 24 26 29 31 33 26 31 27 20 18 33 33 58 28 28 32 18 14
35 37 41 42 44 47 41 35 35 38 37 41 38 35 35 36 34 38 42 38 36 31 25 26 28 29 27 26 27 29 25 26 26 24 18 31 26 52 27 20 35 16 4
Wind_Direction_500mb
9 5 3 2 358 355 355 355 349 347 341 329 321 313 305 304 288 273 277 269 262 247 241 216 223 219 220 213 210 207 202 206 209 215 226 234 240 239 232 231 237 232 232
9 5 357 354 351 351 349 346 342 345 344 336 330 317 306 303 302 296 278 274 266 250 242 223 218 223 222 214 207 204 200 202 209 218 225 228 232 238 238 233 231 232 220
7 6 353 349 346 348 347 343 341 338 337 339 336 333 318 301 303 299 297 291 284 279 246 232 219 216 219 204 200 200 203 217 220 229 240 240 236 231 234 237 238 233 229
0 4 353 351 352 353 351 350 345 340 339 340 337 338 326 312 305 304 301 298 307 273 239 236 209 217 192 198 209 199 203 226 226 226 230 231 234 232 228 230 237 241 229
4 8 357 358 7 2 360 357 356 350 346 338 336 337 335 338 333 317 300 300 284 304 294 264 300 288 215 219 233 242 252 237 220 220 216 209 217 236 240 235 234 239 239
5 10 2 5 12 4 2 1 358 356 353 340 339 331 333 354 350 342 346 339 306 305 335 31 282 285 294 266 262 259 261 238 212 196 207 227 246 258 262 260 249 243 245
7 8 9 7 8 -0 357 355 357 353 353 345 349 341 309 348 352 354 351 18 7 335 327 37 234 237 236 212 258 243 236 266 185 218 237 249 266 266 268 268 259 251 246
8 10 10 6 2 6 352 358 356 357 352 349 354 342 343 336 353 344 355 30 42 68 56 171 184 186 167 167 177 186 211 201 210 203 240 266 269 270 272 266 257 254 250
7 9 8 4 4 7 353 357 352 354 356 353 0 1 342 340 330 336 51 27 43 52 107 130 159 170 192 194 199 213 212 218 226 237 241 249 260 266 266 266 259 256 254
9 10 8 6 5 9 354 356 354 1 8 8 13 6 342 312 324 322 334 341 315 288 277 197 194 219 228 234 245 245 250 248 253 257 259 259 259 258 252 253 261 264 260
6 10 10 8 8 6 358 357 4 4 14 12 11 5 11 353 341 315 313 318 291 282 257 226 216 230 235 231 256 266 256 262 266 269 270 267 267 264 259 260 260 262 263
4 360 13 11 7 9 4 3 7 4 1 10 9 4 342 350 340 328 317 323 321 316 292 270 281 270 268 266 274 273 275 274 271 268 269 271 270 267 263 259 261 264 264
2 360 11 11 11 10 10 7 9 13 357 8 2 360 345 342 339 333 327 324 323 331 295 279 254 268 274 276 272 280 284 278 278 275 270 268 271 273 271 270 265 264 262
351 1 7 11 16 15 14 17 8 12 11 8 360 354 341 335 335 338 321 329 310 304 258 222 266 272 290 290 289 292 300 292 284 282 277 269 268 272 278 275 274 270 266
353 350 3 10 15 15 16 26 10 8 10 4 4 358 355 344 329 336 339 315 299 328 327 330 300 274 284 302 289 301 303 292 300 295 285 276 272 275 275 278 278 267 265
347 351 354 0 4 8 9 18 16 3 0 358 354 350 350 339 341 331 327 336 322 314 309 322 316 296 314 290 279 280 284 286 297 302 305 301 296 289 280 278 278 275 267
335 340 343 344 345 351 354 359 1 0 1 357 350 344 349 345 334 321 326 327 331 332 324 327 320 316 318 306 277 288 292 294 295 299 294 294 288 286 285 281 279 277 272
323 328 335 328 328 332 338 345 347 347 352 353 353 356 355 353 358 334 312 318 313 318 309 313 319 307 310 295 289 295 296 295 287 286 300 294 290 286 281 277 283 283 275
316 321 329 323 321 319 324 331 336 337 335 342 339 340 341 348 355 357 355 317 311 306 301 302 305 313 311 302 317 312 308 309 317 309 314 308 308 299 295 289 287 291 282
310 318 319 319 318 311 311 316 322 326 326 323 322 320 321 335 341 351 359 346 333 323 313 305 299 303 304 302 307 314 319 307 310 311 309 309 302 307 306 300 289 286 280
305 309 313 314 310 307 304 297 305 309 312 313 308 307 304 311 328 336 341 331 338 329 319 317 304 297 297 295 300 310 307 308 310 311 303 309 304 301 309 297 294 288 276
297 301 303 306 309 302 295 306 305 307 309 303 304 301 298 302 322 320 318 315 314 319 317 316 315 305 305 311 308 308 312 308 306 304 306 307 303 307 315 305 298 288 273
289 293 299 301 303 302 303 302 301 299 300 292 293 296 300 300 302 300 313 312 300 299 304 309 300 299 299 299 300 311 314 306 298 298 297 305 304 319 320 313 311 300 285
280 284 291 295 297 301 313 307 296 297 294 284 283 285 286 293 298 309 309 310 299 291 290 297 295 280 282 284 289 305 306 310 309 299 298 310 311 324 325 335 331 307 289
277 279 285 290 293 297 300 308 298 296 287 283 283 281 278 281 288 299 304 307 301 292 287 293 291 289 297 294 289 291 302 316 304 325 307 320 314 335 332 340 340 310 287
281 284 285 287 290 296 298 308 302 294 287 290 288 292 287 296 296 293 297 294 294 291 276 279 287 294 296 301 303 291 281 301 299 322 310 330 330 343 328 334 354 330 274
Wind_Speed_850mb
29 27 27 28 30 31 31 32 32 32 29 27 26 26 25 28 28 31 35 39 41 55 68 65 49 45 41 38 32 25 18 15 13 14 20 25 26 24 22 19 20 20 29
29 25 27 29 31 32 32 33 34 33 32 31 29 29 29 27 28 28 32 35 36 47 55 72 51 53 47 42 36 29 22 18 14 12 13 15 23 27 25 23 21 18 21
30 28 29 30 33 31 32 31 31 30 29 29 31 31 30 28 28 33 29 30 37 41 51 65 79 63 52 42 39 33 25 23 20 17 15 15 18 21 27 27 26 22 18
33 29 30 32 35 32 32 33 32 30 29 28 31 30 27 24 23 26 33 25 22 33 51 25 65 73 40 43 35 38 28 29 27 21 15 13 11 16 21 29 29 27 24
34 34 31 33 33 31 32 33 33 33 30 30 30 27 25 18 20 19 25 23 25 19 39 48 37 39 43 52 43 38 40 35 36 24 18 15 11 10 12 19 29 32 31
37 35 29 32 32 31 30 33 33 32 29 32 27 23 18 14 14 16 19 16 19 21 18 12 33 35 35 50 38 39 30 55 43 29 18 15 15 16 17 20 25 32 37
36 33 30 30 32 31 35 36 33 31 28 31 27 22 13 5 10 13 18 19 16 9 11 7 11 22 31 19 27 32 40 8 20 26 25 20 25 25 26 26 29 34 39
34 31 33 31 33 30 34 36 37 34 28 32 31 25 17 4 13 10 8 11 14 9 3 3 5 13 12 10 11 14 14 11 11 16 21 27 33 33 31 29 30 33 39
35 36 33 31 31 31 31 35 35 32 31 26 25 19 16 13 30 7 9 9 7 8 4 6 8 7 13 15 15 14 19 21 25 27 29 33 37 36 29 30 31 34 37
33 31 32 31 32 32 33 31 30 30 34 32 26 24 14 19 15 13 8 7 8 2 1 8 7 14 12 9 17 18 19 22 23 24 26 27 27 31 33 33 37 40 39
28 32 32 32 33 31 34 34 34 38 32 29 29 30 26 18 14 18 24 15 7 9 4 6 10 7 8 12 12 17 21 24 25 28 31 31 33 33 37 42 43 44 43
25 33 32 30 31 34 35 31 30 30 30 27 28 23 22 17 18 18 25 24 16 3 7 6 7 6 5 8 13 25 25 24 27 28 31 32 33 35 38 42 46 50 47
24 29 31 30 30 33 34 33 32 31 29 26 34 31 23 25 24 21 21 22 16 13 9 10 6 6 7 6 12 19 26 24 28 29 31 31 33 33 34 36 42 50 52
22 27 26 27 32 34 34 33 29 26 27 26 29 29 25 22 25 22 19 20 18 10 4 4 4 7 7 11 17 20 19 27 24 27 29 31 33 34 36 39 39 42 47
20 21 22 25 29 30 32 31 30 29 29 28 26 26 27 26 25 23 21 17 12 14 14 5 5 6 6 11 18 16 13 21 20 22 27 31 36 38 38 42 42 47 47
19 20 20 21 22 25 27 29 26 28 28 27 26 28 25 25 26 24 18 19 17 16 14 15 12 11 8 11 16 12 14 18 23 25 27 29 32 34 37 38 42 46 49
19 17 19 19 19 21 24 25 25 28 29 27 27 26 29 26 23 21 20 17 16 18 19 20 18 19 26 18 17 22 24 28 30 35 32 38 41 46 49 47 46 49 53
18 18 18 18 18 20 22 24 25 25 26 27 24 24 24 27 32 23 18 18 15 14 15 21 20 15 17 18 20 24 24 23 24 31 38 40 43 47 49 52 54 56 58
18 17 18 18 19 21 22 23 24 25 24 21 22 19 21 23 26 29 21 18 18 18 18 20 24 19 20 21 17 22 21 25 20 32 34 33 34 39 44 53 60 61 59
17 17 19 20 21 22 22 23 24 25 26 22 19 20 18 18 20 21 19 22 22 23 21 21 22 23 21 21 19 21 23 24 30 32 36 36 37 43 49 51 55 60 57
18 18 20 22 24 26 25 26 29 28 28 28 24 19 20 21 22 21 19 18 18 20 23 23 23 22 21 19 19 24 28 30 32 32 32 33 34 37 50 56 53 51 49
22 23 25 28 30 31 36 36 39 40 34 32 31 27 24 29 28 30 26 26 24 21 18 22 26 21 17 22 21 26 30 33 37 30 32 39 33 53 50 49 47 48 44
26 28 29 28 31 33 38 37 39 43 43 35 35 32 30 25 34 26 33 35 30 25 22 21 20 21 20 19 20 22 27 34 35 29 31 35 43 57 48 38 39 36 33
30 31 33 34 35 37 43 36 37 43 46 41 39 36 33 33 30 33 37 36 30 27 30 23 21 21 22 23 25 27 32 32 37 30 23 36 43 49 36 34 34 23 18
31 34 36 39 41 43 44 38 36 41 39 42 39 36 35 36 36 42 42 41 33 26 26 22 24 24 26 29 31 33 26 31 27 20 18 33 33 58 28 28 32 18 14
35 37 41 42 44 47 41 35 35 38 37 41 38 35 35 36 34 38 42 38 36 31 25 26 28 29 27 26 27 29 25 26 26 24 18 31 26 52 27 20 35 16 4
Wind_Direction_850mb
9 5 3 2 358 355 355 355 349 347 341 329 321 313 305 304 288 273 277 269 262 247 241 216 223 219 220 213 210 207 202 206 209 215 226 234 240 239 232 231 237 232 232
9 5 357 354 351 351 349 346 342 345 344 336 330 317 306 303 302 296 278 274 266 250 242 223 218 223 222 214 207 204 200 202 209 218 225 228 232 238 238 233 231 232 220
7 6 353 349 346 348 347 343 341 338 337 339 336 333 318 301 303 299 297 291 284 279 246 232 219 216 219 204 200 200 203 217 220 229 240 240 236 231 234 237 238 233 229
0 4 353 351 352 353 351 350 345 340 339 340 337 338 326 312 305 304 301 298 307 273 239 236 209 217 192 198 209 199 203 226 226 226 230 231 234 232 228 230 237 241 229
4 8 357 358 7 2 360 357 356 350 346 338 336 337 335 338 333 317 300 300 284 304 294 264 300 288 215 219 233 242 252 237 220 220 216 209 217 236 240 235 234 239 239
5 10 2 5 12 4 2 1 358 356 353 340 339 331 333 354 350 342 346 339 306 305 335 31 282 285 294 266 262 259 261 238 212 196 207 227 246 258 262 260 249 243 245
7 8 9 7 8 -0 357 355 357 353 353 345 349 341 309 348 352 354 351 18 7 335 327 37 234 237 236 212 258 243 236 266 185 218 237 249 266 266 268 268 259 251 246
8 10 10 6 2 6 352 358 356 357 352 349 354 342 343 336 353 344 355 30 42 68 56 171 184 186 167 167 177 186 211 201 210 203 240 266 269 270 272 266 257 254 250
7 9 8 4 4 7 353 357 352 354 356 353 0 1 342 340 330 336 51 27 43 52 107 130 159 170 192 194 199 213 212 218 226 237 241 249 260 266 266 266 259 256 254
9 10 8 6 5 9 354 356 354 1 8 8 13 6 342 312 324 322 334 341 315 288 277 197 194 219 228 234 245 245 250 248 253 257 259 259 259 258 252 253 261 264 260
6 10 10 8 8 6 358 357 4 4 14 12 11 5 11 353 341 315 313 318 291 282 257 226 216 230 235 231 256 266 256 262 266 269 270 267 267 264 259 260 260 262 263
4 360 13 11 7 9 4 3 7 4 1 10 9 4 342 350 340 328 317 323 321 316 292 270 281 270 268 266 274 273 275 274 271 268 269 271 270 267 263 259 261 264 264
2 360 11 11 11 10 10 7 9 13 357 8 2 360 345 342 339 333 327 324 323 331 295 279 254 268 274 276 272 280 284 278 278 275 270 268 271 273 271 270 265 264 262
351 1 7 11 16 15 14 17 8 12 11 8 360 354 341 335 335 338 321 329 310 304 258 222 266 272 290 290 289 292 300 292 284 282 277 269 268 272 278 275 274 270 266
353 350 3 10 15 15 16 26 10 8 10 4 4 358 355 344 329 336 339 315 299 328 327 330 300 274 284 302 289 301 303 292 300 295 285 276 272 275 275 278 278 267 265
347 351 354 0 4 8 9 18 16 3 0 358 354 350 350 339 341 331 327 336 322 314 309 322 316 296 314 290 279 280 284 286 297 302 305 301 296 289 280 278 278 275 267
335 340 343 344 345 351 354 359 1 0 1 357 350 344 349 345 334 321 326 327 331 332 324 327 320 316 318 306 277 288 292 294 295 299 294 294 288 286 285 281 279 277 272
323 328 335 328 328 332 338 345 347 347 352 353 353 356 355 353 358 334 312 318 313 318 309 313 319 307 310 295 289 295 296 295 287 286 300 294 290 286 281 277 283 283 275
316 321 329 323 321 319 324 331 336 337 335 342 339 340 341 348 355 357 355 317 311 306 301 302 305 313 311 302 317 312 308 309 317 309 314 308 308 299 295 289 287 291 282
310 318 319 319 318 311 311 316 322 326 326 323 322 320 321 335 341 351 359 346 333 323 313 305 299 303 304 302 307 314 319 307 310 311 309 309 302 307 306 300 289 286 280
305 309 313 314 310 307 304 297 305 309 312 313 308 307 304 311 328 336 341 331 338 329 319 317 304 297 297 295 300 310 307 308 310 311 303 309 304 301 309 297 294 288 276
297 301 303 306 309 302 295 306 305 307 309 303 304 301 298 302 322 320 318 315 314 319 317 316 315 305 305 311 308 308 312 308 306 304 306 307 303 307 315 305 298 288 273
289 293 299 301 303 302 303 302 301 299 300 292 293 296 300 300 302 300 313 312 300 299 304 309 300 299 299 299 300 311 314 306 298 298 297 305 304 319 320 313 311 300 285
280 284 291 295 297 301 313 307 296 297 294 284 283 285 286 293 298 309 309 310 299 291 290 297 295 280 282 284 289 305 306 310 309 299 298 310 311 324 325 335 331 307 289
277 279 285 290 293 297 300 308 298 296 287 283 283 281 278 281 288 299 304 307 301 292 287 293 291 289 297 294 289 291 302 316 304 325 307 320 314 335 332 340 340 310 287
281 284 285 287 290 296 298 308 302 294 287 290 288 292 287 296 296 293 297 294 294 291 276 279 287 294 296 301 303 291 281 301 299 322 310 330 330 343 328 334 354 330 274